Tracking 25963 objects as of 12-Aug-2022
HD Live streaming from Space Station
objects crossing your sky now

SL-12 R/B(2)

Track SL-12 R/B(2) now!


NORAD ID: 26393
Int'l Code: 2000-035D
Perigee: 5,935.1 km
Apogee: 47,069.8 km
Inclination: 61.7 °
Period: 988.6 minutes
Semi major axis: 32873 km
RCS: 21.0772 m2 (large)
Launch date: June 30, 2000
Source: Commonwealth of Independent States (former USSR) (CIS)
Launch site: TYURATAM MISSILE AND SPACE COMPLEX (TTMTR)

Note: This is a ROCKET BODY
aabbcc
Your satellite tracking list
Your tracking list is empty




NASA's NSSDC Master Catalog

Two Line Element Set (TLE):
1 26393U 00035D   22221.93042642  .00000128  00000-0  00000-0 0  9991
2 26393  61.6581 214.8439 6256529 295.3581  13.7763  1.45658279117598
Source of the keplerian elements: AFSPC